Date,TemperatureHighF,TemperatureAvgF,TemperatureLowF,DewpointHighF,DewpointAvgF,DewpointLowF,HumidityHigh,HumidityAvg,HumidityLow,PressureMaxIn,PressureMinIn,WindSpeedMaxMPH,WindSpeedAvgMPH,GustSpeedMaxMPH,PrecipitationSumIn
2013-2-1,34,25,18,29,13,3,86,61,37,30.51,30.11,16,4,33,0.00
2013-2-2,31,24,16,29,17,3,96,77,54,30.52,30.26,7,0,16,0.00
2013-2-3,35,30,28,31,26,21,95,83,72,30.26,30.13,13,3,27,0.03
2013-2-4,44,32,22,28,22,16,87,68,47,30.29,30.15,6,1,11,0.20
2013-2-5,50,40,34,39,31,22,88,72,57,30.16,30.06,5,1,18,0.18
2013-2-6,56,44,35,37,27,18,84,56,27,30.30,30.15,9,2,16,0.01
2013-2-7,44,41,38,41,33,22,96,75,50,30.31,30.07,5,0,11,0.24
2013-2-8,46,40,31,42,36,25,97,87,64,30.27,30.02,10,1,24,0.12
2013-2-9,58,38,26,33,22,16,85,57,25,30.45,30.24,4,0,8,0.01
2013-2-10,50,42,38,46,28,16,97,62,26,30.45,30.24,6,1,15,0.93
2013-2-11,51,48,41,50,43,20,100,84,39,30.26,30.14,6,2,17,1.05
2013-2-12,51,41,34,37,30,21,95,68,47,30.22,30.01,3,0,10,0.25
2013-2-13,44,38,32,42,35,28,97,92,81,30.02,29.77,17,2,30,0.48
2013-2-14,49,35,26,33,27,24,95,76,47,30.20,30.02,8,1,12,0.01
2013-2-15,50,37,29,35,30,26,94,77,45,30.24,30.08,10,2,18,0.01
2013-2-16,34,27,19,30,20,7,86,73,51,30.20,30.01,14,4,25,0.01
2013-2-17,32,23,16,14,8,5,67,54,40,30.45,30.19,15,5,34,0.00
2013-2-18,53,34,20,29,19,11,76,57,36,30.53,30.30,11,2,24,0.00
2013-2-19,44,37,31,38,27,14,95,70,42,30.30,30.04,16,4,28,0.28
2013-2-20,45,33,24,17,9,1,58,39,20,30.29,30.21,9,2,23,0.01
2013-2-21,59,39,25,36,20,11,93,50,22,30.35,30.16,9,1,15,0.48
2013-2-22,42,38,34,41,37,33,97,96,93,30.32,30.17,2,0,9,1.03
2013-2-23,54,46,42,53,45,37,98,93,72,30.19,29.91,8,1,17,0.26
2013-2-24,55,43,34,38,30,21,91,62,28,30.14,29.96,10,2,17,0.01
2013-2-25,50,40,32,37,29,22,85,65,48,30.18,30.04,3,0,7,0.00
2013-2-26,47,42,37,46,39,31,97,91,81,30.04,29.61,11,3,24,1.11
2013-2-27,49,38,32,36,31,27,89,76,46,29.92,29.76,11,3,26,0.02
2013-2-28,35,30,27,30,24,21,84,79,73,30.08,29.86,15,5,26,0.01